Index of /20260430/WXO-DD/model_gdps/15km/12/054
Name Last modified Size Description
Parent Directory -
20260430T12Z_MSC_GDPS_AbsoluteVorticity_IsbL-0200_LatLon0.15_PT054H.grib2 2026-04-30 16:05 1.5M
20260430T12Z_MSC_GDPS_AbsoluteVorticity_IsbL-0250_LatLon0.15_PT054H.grib2 2026-04-30 16:05 1.3M
20260430T12Z_MSC_GDPS_AbsoluteVorticity_IsbL-0500_LatLon0.15_PT054H.grib2 2026-04-30 16:05 1.4M
20260430T12Z_MSC_GDPS_AbsoluteVorticity_IsbL-0700_LatLon0.15_PT054H.grib2 2026-04-30 16:05 1.3M
20260430T12Z_MSC_GDPS_AbsoluteVorticity_IsbL-0850_LatLon0.15_PT054H.grib2 2026-04-30 16:05 1.6M
20260430T12Z_MSC_GDPS_AirTemp-Max_AGL-2m_LatLon0.15_PT054H.grib2 2026-04-30 16:05 746K
20260430T12Z_MSC_GDPS_AirTemp-Min_AGL-2m_LatLon0.15_PT054H.grib2 2026-04-30 16:05 792K
20260430T12Z_MSC_GDPS_AirTemp_AGL-120m_LatLon0.15_PT054H.grib2 2026-04-30 16:05 791K
20260430T12Z_MSC_GDPS_AirTemp_AGL-2m_LatLon0.15_PT054H.grib2 2026-04-30 16:05 1.0M
20260430T12Z_MSC_GDPS_AirTemp_AGL-40m_LatLon0.15_PT054H.grib2 2026-04-30 16:05 814K
20260430T12Z_MSC_GDPS_AirTemp_AGL-80m_LatLon0.15_PT054H.grib2 2026-04-30 16:05 800K
20260430T12Z_MSC_GDPS_AirTemp_IsbL-0001_LatLon0.15_PT054H.grib2 2026-04-30 16:05 714K
20260430T12Z_MSC_GDPS_AirTemp_IsbL-0005_LatLon0.15_PT054H.grib2 2026-04-30 16:05 687K
20260430T12Z_MSC_GDPS_AirTemp_IsbL-0010_LatLon0.15_PT054H.grib2 2026-04-30 16:05 694K
20260430T12Z_MSC_GDPS_AirTemp_IsbL-0020_LatLon0.15_PT054H.grib2 2026-04-30 16:05 781K
20260430T12Z_MSC_GDPS_AirTemp_IsbL-0030_LatLon0.15_PT054H.grib2 2026-04-30 16:05 752K
20260430T12Z_MSC_GDPS_AirTemp_IsbL-0050_LatLon0.15_PT054H.grib2 2026-04-30 16:05 807K
20260430T12Z_MSC_GDPS_AirTemp_IsbL-0100_LatLon0.15_PT054H.grib2 2026-04-30 16:05 1.0M
20260430T12Z_MSC_GDPS_AirTemp_IsbL-0150_LatLon0.15_PT054H.grib2 2026-04-30 16:05 1.0M
20260430T12Z_MSC_GDPS_AirTemp_IsbL-0175_LatLon0.15_PT054H.grib2 2026-04-30 16:05 963K
20260430T12Z_MSC_GDPS_AirTemp_IsbL-0200_LatLon0.15_PT054H.grib2 2026-04-30 16:05 1.0M
20260430T12Z_MSC_GDPS_AirTemp_IsbL-0225_LatLon0.15_PT054H.grib2 2026-04-30 16:05 1.0M
20260430T12Z_MSC_GDPS_AirTemp_IsbL-0250_LatLon0.15_PT054H.grib2 2026-04-30 16:05 1.0M
20260430T12Z_MSC_GDPS_AirTemp_IsbL-0275_LatLon0.15_PT054H.grib2 2026-04-30 16:05 1.0M
20260430T12Z_MSC_GDPS_AirTemp_IsbL-0300_LatLon0.15_PT054H.grib2 2026-04-30 16:05 1.0M
20260430T12Z_MSC_GDPS_AirTemp_IsbL-0350_LatLon0.15_PT054H.grib2 2026-04-30 16:05 929K
20260430T12Z_MSC_GDPS_AirTemp_IsbL-0400_LatLon0.15_PT054H.grib2 2026-04-30 16:05 939K
20260430T12Z_MSC_GDPS_AirTemp_IsbL-0450_LatLon0.15_PT054H.grib2 2026-04-30 16:05 959K
20260430T12Z_MSC_GDPS_AirTemp_IsbL-0500_LatLon0.15_PT054H.grib2 2026-04-30 16:05 1.0M
20260430T12Z_MSC_GDPS_AirTemp_IsbL-0550_LatLon0.15_PT054H.grib2 2026-04-30 16:05 803K
20260430T12Z_MSC_GDPS_AirTemp_IsbL-0600_LatLon0.15_PT054H.grib2 2026-04-30 16:05 894K
20260430T12Z_MSC_GDPS_AirTemp_IsbL-0650_LatLon0.15_PT054H.grib2 2026-04-30 16:05 924K
20260430T12Z_MSC_GDPS_AirTemp_IsbL-0700_LatLon0.15_PT054H.grib2 2026-04-30 16:05 960K
20260430T12Z_MSC_GDPS_AirTemp_IsbL-0750_LatLon0.15_PT054H.grib2 2026-04-30 16:05 1.0M
20260430T12Z_MSC_GDPS_AirTemp_IsbL-0800_LatLon0.15_PT054H.grib2 2026-04-30 16:05 1.1M
20260430T12Z_MSC_GDPS_AirTemp_IsbL-0850_LatLon0.15_PT054H.grib2 2026-04-30 16:05 1.1M
20260430T12Z_MSC_GDPS_AirTemp_IsbL-0875_LatLon0.15_PT054H.grib2 2026-04-30 16:05 1.2M
20260430T12Z_MSC_GDPS_AirTemp_IsbL-0900_LatLon0.15_PT054H.grib2 2026-04-30 16:05 1.1M
20260430T12Z_MSC_GDPS_AirTemp_IsbL-0925_LatLon0.15_PT054H.grib2 2026-04-30 16:05 1.1M
20260430T12Z_MSC_GDPS_AirTemp_IsbL-0950_LatLon0.15_PT054H.grib2 2026-04-30 16:05 1.1M
20260430T12Z_MSC_GDPS_AirTemp_IsbL-0970_LatLon0.15_PT054H.grib2 2026-04-30 16:05 1.2M
20260430T12Z_MSC_GDPS_AirTemp_IsbL-0985_LatLon0.15_PT054H.grib2 2026-04-30 16:05 1.1M
20260430T12Z_MSC_GDPS_AirTemp_IsbL-1000_LatLon0.15_PT054H.grib2 2026-04-30 16:05 1.1M
20260430T12Z_MSC_GDPS_AirTemp_IsbL-1015_LatLon0.15_PT054H.grib2 2026-04-30 16:05 1.1M
20260430T12Z_MSC_GDPS_Albedo_Sfc_LatLon0.15_PT054H.grib2 2026-04-30 16:05 245K
20260430T12Z_MSC_GDPS_CAPE_Sfc_LatLon0.15_PT054H.grib2 2026-04-30 16:05 3.7M
20260430T12Z_MSC_GDPS_CIN_Sfc_LatLon0.15_PT054H.grib2 2026-04-30 16:05 2.9M
20260430T12Z_MSC_GDPS_CloudWater_EAtm_LatLon0.15_PT054H.grib2 2026-04-30 16:05 536K
20260430T12Z_MSC_GDPS_ConvectivePrecip-Accum_Sfc_LatLon0.15_PT054H.grib2 2026-04-30 16:05 3.0M
20260430T12Z_MSC_GDPS_DewPointDepression_AGL-2m_LatLon0.15_PT054H.grib2 2026-04-30 16:05 768K
20260430T12Z_MSC_GDPS_DewPointDepression_IsbL-0010_LatLon0.15_PT054H.grib2 2026-04-30 16:05 67K
20260430T12Z_MSC_GDPS_DewPointDepression_IsbL-0020_LatLon0.15_PT054H.grib2 2026-04-30 16:05 65K
20260430T12Z_MSC_GDPS_DewPointDepression_IsbL-0030_LatLon0.15_PT054H.grib2 2026-04-30 16:05 82K
20260430T12Z_MSC_GDPS_DewPointDepression_IsbL-0050_LatLon0.15_PT054H.grib2 2026-04-30 16:05 373K
20260430T12Z_MSC_GDPS_DewPointDepression_IsbL-0100_LatLon0.15_PT054H.grib2 2026-04-30 16:05 415K
20260430T12Z_MSC_GDPS_DewPointDepression_IsbL-0150_LatLon0.15_PT054H.grib2 2026-04-30 16:05 470K
20260430T12Z_MSC_GDPS_DewPointDepression_IsbL-0175_LatLon0.15_PT054H.grib2 2026-04-30 16:05 577K
20260430T12Z_MSC_GDPS_DewPointDepression_IsbL-0200_LatLon0.15_PT054H.grib2 2026-04-30 16:05 685K
20260430T12Z_MSC_GDPS_DewPointDepression_IsbL-0225_LatLon0.15_PT054H.grib2 2026-04-30 16:05 782K
20260430T12Z_MSC_GDPS_DewPointDepression_IsbL-0250_LatLon0.15_PT054H.grib2 2026-04-30 16:05 865K
20260430T12Z_MSC_GDPS_DewPointDepression_IsbL-0275_LatLon0.15_PT054H.grib2 2026-04-30 16:05 884K
20260430T12Z_MSC_GDPS_DewPointDepression_IsbL-0300_LatLon0.15_PT054H.grib2 2026-04-30 16:05 922K
20260430T12Z_MSC_GDPS_DewPointDepression_IsbL-0350_LatLon0.15_PT054H.grib2 2026-04-30 16:05 951K
20260430T12Z_MSC_GDPS_DewPointDepression_IsbL-0400_LatLon0.15_PT054H.grib2 2026-04-30 16:05 1.0M
20260430T12Z_MSC_GDPS_DewPointDepression_IsbL-0450_LatLon0.15_PT054H.grib2 2026-04-30 16:05 1.0M
20260430T12Z_MSC_GDPS_DewPointDepression_IsbL-0500_LatLon0.15_PT054H.grib2 2026-04-30 16:05 1.0M
20260430T12Z_MSC_GDPS_DewPointDepression_IsbL-0550_LatLon0.15_PT054H.grib2 2026-04-30 16:05 1.0M
20260430T12Z_MSC_GDPS_DewPointDepression_IsbL-0600_LatLon0.15_PT054H.grib2 2026-04-30 16:05 1.0M
20260430T12Z_MSC_GDPS_DewPointDepression_IsbL-0650_LatLon0.15_PT054H.grib2 2026-04-30 16:05 1.1M
20260430T12Z_MSC_GDPS_DewPointDepression_IsbL-0700_LatLon0.15_PT054H.grib2 2026-04-30 16:05 1.1M
20260430T12Z_MSC_GDPS_DewPointDepression_IsbL-0750_LatLon0.15_PT054H.grib2 2026-04-30 16:05 1.1M
20260430T12Z_MSC_GDPS_DewPointDepression_IsbL-0800_LatLon0.15_PT054H.grib2 2026-04-30 16:05 1.2M
20260430T12Z_MSC_GDPS_DewPointDepression_IsbL-0850_LatLon0.15_PT054H.grib2 2026-04-30 16:05 1.2M
20260430T12Z_MSC_GDPS_DewPointDepression_IsbL-0875_LatLon0.15_PT054H.grib2 2026-04-30 16:05 1.1M
20260430T12Z_MSC_GDPS_DewPointDepression_IsbL-0900_LatLon0.15_PT054H.grib2 2026-04-30 16:05 1.1M
20260430T12Z_MSC_GDPS_DewPointDepression_IsbL-0925_LatLon0.15_PT054H.grib2 2026-04-30 16:05 1.0M
20260430T12Z_MSC_GDPS_DewPointDepression_IsbL-0950_LatLon0.15_PT054H.grib2 2026-04-30 16:05 1.0M
20260430T12Z_MSC_GDPS_DewPointDepression_IsbL-0970_LatLon0.15_PT054H.grib2 2026-04-30 16:05 1.0M
20260430T12Z_MSC_GDPS_DewPointDepression_IsbL-0985_LatLon0.15_PT054H.grib2 2026-04-30 16:05 1.0M
20260430T12Z_MSC_GDPS_DewPointDepression_IsbL-1000_LatLon0.15_PT054H.grib2 2026-04-30 16:05 1.0M
20260430T12Z_MSC_GDPS_DewPointDepression_IsbL-1015_LatLon0.15_PT054H.grib2 2026-04-30 16:05 922K
20260430T12Z_MSC_GDPS_DewPoint_AGL-2m_LatLon0.15_PT054H.grib2 2026-04-30 16:05 612K
20260430T12Z_MSC_GDPS_DownwardLongwaveRadiationFlux-Accum_Sfc_LatLon0.15_PT054H.grib2 2026-04-30 16:05 847K
20260430T12Z_MSC_GDPS_DownwardShortwaveRadiationFlux-Accum_NTAtm_LatLon0.15_PT054H.grib2 2026-04-30 16:05 192K
20260430T12Z_MSC_GDPS_DownwardShortwaveRadiationFlux-Accum_Sfc_LatLon0.15_PT054H.grib2 2026-04-30 16:05 1.0M
20260430T12Z_MSC_GDPS_FreezingRain-Accum12h_Sfc_LatLon0.15_PT054H.grib2 2026-04-30 16:05 108K
20260430T12Z_MSC_GDPS_FreezingRain-Accum1h_Sfc_LatLon0.15_PT054H.grib2 2026-04-30 16:05 37K
20260430T12Z_MSC_GDPS_FreezingRain-Accum24h_Sfc_LatLon0.15_PT054H.grib2 2026-04-30 16:05 164K
20260430T12Z_MSC_GDPS_FreezingRain-Accum3h_Sfc_LatLon0.15_PT054H.grib2 2026-04-30 16:05 47K
20260430T12Z_MSC_GDPS_FreezingRain-Accum6h_Sfc_LatLon0.15_PT054H.grib2 2026-04-30 16:05 84K
20260430T12Z_MSC_GDPS_FreezingRain-Accum_Sfc_LatLon0.15_PT054H.grib2 2026-04-30 16:05 293K
20260430T12Z_MSC_GDPS_GeopotentialHeight_IsbL-0001_LatLon0.15_PT054H.grib2 2026-04-30 16:05 428K
20260430T12Z_MSC_GDPS_GeopotentialHeight_IsbL-0005_LatLon0.15_PT054H.grib2 2026-04-30 16:05 493K
20260430T12Z_MSC_GDPS_GeopotentialHeight_IsbL-0010_LatLon0.15_PT054H.grib2 2026-04-30 16:05 486K
20260430T12Z_MSC_GDPS_GeopotentialHeight_IsbL-0020_LatLon0.15_PT054H.grib2 2026-04-30 16:05 415K
20260430T12Z_MSC_GDPS_GeopotentialHeight_IsbL-0030_LatLon0.15_PT054H.grib2 2026-04-30 16:05 571K
20260430T12Z_MSC_GDPS_GeopotentialHeight_IsbL-0050_LatLon0.15_PT054H.grib2 2026-04-30 16:05 570K
20260430T12Z_MSC_GDPS_GeopotentialHeight_IsbL-0100_LatLon0.15_PT054H.grib2 2026-04-30 16:05 611K
20260430T12Z_MSC_GDPS_GeopotentialHeight_IsbL-0150_LatLon0.15_PT054H.grib2 2026-04-30 16:05 631K
20260430T12Z_MSC_GDPS_GeopotentialHeight_IsbL-0175_LatLon0.15_PT054H.grib2 2026-04-30 16:05 635K
20260430T12Z_MSC_GDPS_GeopotentialHeight_IsbL-0200_LatLon0.15_PT054H.grib2 2026-04-30 16:05 639K
20260430T12Z_MSC_GDPS_GeopotentialHeight_IsbL-0225_LatLon0.15_PT054H.grib2 2026-04-30 16:05 642K
20260430T12Z_MSC_GDPS_GeopotentialHeight_IsbL-0250_LatLon0.15_PT054H.grib2 2026-04-30 16:05 641K
20260430T12Z_MSC_GDPS_GeopotentialHeight_IsbL-0275_LatLon0.15_PT054H.grib2 2026-04-30 16:05 642K
20260430T12Z_MSC_GDPS_GeopotentialHeight_IsbL-0300_LatLon0.15_PT054H.grib2 2026-04-30 16:05 635K
20260430T12Z_MSC_GDPS_GeopotentialHeight_IsbL-0350_LatLon0.15_PT054H.grib2 2026-04-30 16:05 628K
20260430T12Z_MSC_GDPS_GeopotentialHeight_IsbL-0400_LatLon0.15_PT054H.grib2 2026-04-30 16:05 622K
20260430T12Z_MSC_GDPS_GeopotentialHeight_IsbL-0450_LatLon0.15_PT054H.grib2 2026-04-30 16:05 612K
20260430T12Z_MSC_GDPS_GeopotentialHeight_IsbL-0500_LatLon0.15_PT054H.grib2 2026-04-30 16:05 533K
20260430T12Z_MSC_GDPS_GeopotentialHeight_IsbL-0550_LatLon0.15_PT054H.grib2 2026-04-30 16:05 528K
20260430T12Z_MSC_GDPS_GeopotentialHeight_IsbL-0600_LatLon0.15_PT054H.grib2 2026-04-30 16:05 524K
20260430T12Z_MSC_GDPS_GeopotentialHeight_IsbL-0650_LatLon0.15_PT054H.grib2 2026-04-30 16:05 691K
20260430T12Z_MSC_GDPS_GeopotentialHeight_IsbL-0700_LatLon0.15_PT054H.grib2 2026-04-30 16:05 687K
20260430T12Z_MSC_GDPS_GeopotentialHeight_IsbL-0750_LatLon0.15_PT054H.grib2 2026-04-30 16:05 699K
20260430T12Z_MSC_GDPS_GeopotentialHeight_IsbL-0800_LatLon0.15_PT054H.grib2 2026-04-30 16:05 708K
20260430T12Z_MSC_GDPS_GeopotentialHeight_IsbL-0850_LatLon0.15_PT054H.grib2 2026-04-30 16:05 717K
20260430T12Z_MSC_GDPS_GeopotentialHeight_IsbL-0875_LatLon0.15_PT054H.grib2 2026-04-30 16:05 718K
20260430T12Z_MSC_GDPS_GeopotentialHeight_IsbL-0900_LatLon0.15_PT054H.grib2 2026-04-30 16:05 728K
20260430T12Z_MSC_GDPS_GeopotentialHeight_IsbL-0925_LatLon0.15_PT054H.grib2 2026-04-30 16:05 735K
20260430T12Z_MSC_GDPS_GeopotentialHeight_IsbL-0950_LatLon0.15_PT054H.grib2 2026-04-30 16:05 746K
20260430T12Z_MSC_GDPS_GeopotentialHeight_IsbL-0970_LatLon0.15_PT054H.grib2 2026-04-30 16:05 756K
20260430T12Z_MSC_GDPS_GeopotentialHeight_IsbL-0985_LatLon0.15_PT054H.grib2 2026-04-30 16:05 771K
20260430T12Z_MSC_GDPS_GeopotentialHeight_IsbL-1000_LatLon0.15_PT054H.grib2 2026-04-30 16:05 793K
20260430T12Z_MSC_GDPS_GeopotentialHeight_IsbL-1015_LatLon0.15_PT054H.grib2 2026-04-30 16:05 814K
20260430T12Z_MSC_GDPS_Humidex_Sfc_LatLon0.15_PT054H.grib2 2026-04-30 16:05 5.3M
20260430T12Z_MSC_GDPS_IcePellets-Accum12h_Sfc_LatLon0.15_PT054H.grib2 2026-04-30 16:05 17K
20260430T12Z_MSC_GDPS_IcePellets-Accum1h_Sfc_LatLon0.15_PT054H.grib2 2026-04-30 16:05 9.6K
20260430T12Z_MSC_GDPS_IcePellets-Accum24h_Sfc_LatLon0.15_PT054H.grib2 2026-04-30 16:05 27K
20260430T12Z_MSC_GDPS_IcePellets-Accum3h_Sfc_LatLon0.15_PT054H.grib2 2026-04-30 16:05 9.9K
20260430T12Z_MSC_GDPS_IcePellets-Accum6h_Sfc_LatLon0.15_PT054H.grib2 2026-04-30 16:05 14K
20260430T12Z_MSC_GDPS_IcePellets-Accum_Sfc_LatLon0.15_PT054H.grib2 2026-04-30 16:05 65K
20260430T12Z_MSC_GDPS_KIndex_Sfc_LatLon0.15_PT054H.grib2 2026-04-30 16:05 6.5M
20260430T12Z_MSC_GDPS_LatentHeatNetFlux_Sfc_LatLon0.15_PT054H.grib2 2026-04-30 16:05 517K
20260430T12Z_MSC_GDPS_LiftedIndex-MU-VT_IsbL-0500_LatLon0.15_PT054H.grib2 2026-04-30 16:05 5.4M
20260430T12Z_MSC_GDPS_NetLongwaveRadiationFlux-Accum_Sfc_LatLon0.15_PT054H.grib2 2026-04-30 16:05 1.2M
20260430T12Z_MSC_GDPS_NetShortwaveRadiationFlux-Accum_Sfc_LatLon0.15_PT054H.grib2 2026-04-30 16:05 1.0M
20260430T12Z_MSC_GDPS_O3MixingRatio_Sfc_LatLon0.15_PT054H.grib2 2026-04-30 16:44 2.0M
20260430T12Z_MSC_GDPS_O3_EAtm_LatLon0.15_PT054H.grib2 2026-04-30 16:44 2.5M
20260430T12Z_MSC_GDPS_PlanetaryBoundaryLayerHeight_Sfc_LatLon0.15_PT054H.grib2 2026-04-30 16:05 2.4M
20260430T12Z_MSC_GDPS_Precip-Accum12h_Sfc_LatLon0.15_PT054H.grib2 2026-04-30 16:05 4.0M
20260430T12Z_MSC_GDPS_Precip-Accum1h_Sfc_LatLon0.15_PT054H.grib2 2026-04-30 16:05 3.2M
20260430T12Z_MSC_GDPS_Precip-Accum24h_Sfc_LatLon0.15_PT054H.grib2 2026-04-30 16:05 4.5M
20260430T12Z_MSC_GDPS_Precip-Accum3h_Sfc_LatLon0.15_PT054H.grib2 2026-04-30 16:05 3.5M
20260430T12Z_MSC_GDPS_Precip-Accum6h_Sfc_LatLon0.15_PT054H.grib2 2026-04-30 16:05 3.5M
20260430T12Z_MSC_GDPS_Precip-Accum_Sfc_LatLon0.15_PT054H.grib2 2026-04-30 16:05 5.0M
20260430T12Z_MSC_GDPS_PrecipRate_Sfc_LatLon0.15_PT054H.grib2 2026-04-30 16:05 3.0M
20260430T12Z_MSC_GDPS_PrecipType-Instant_Sfc_LatLon0.15_PT054H.grib2 2026-04-30 16:05 1.6M
20260430T12Z_MSC_GDPS_Pressure_MSL_LatLon0.15_PT054H.grib2 2026-04-30 16:05 732K
20260430T12Z_MSC_GDPS_Pressure_PVU-1.5_LatLon0.15_PT054H.grib2 2026-04-30 16:05 5.8M
20260430T12Z_MSC_GDPS_Pressure_PVU-1_LatLon0.15_PT054H.grib2 2026-04-30 16:05 6.0M
20260430T12Z_MSC_GDPS_Pressure_PVU-2_LatLon0.15_PT054H.grib2 2026-04-30 16:05 5.6M
20260430T12Z_MSC_GDPS_Pressure_Sfc_LatLon0.15_PT054H.grib2 2026-04-30 16:05 1.1M
20260430T12Z_MSC_GDPS_RadiativeTemp_Sfc_LatLon0.15_PT054H.grib2 2026-04-30 16:05 491K
20260430T12Z_MSC_GDPS_Rain-Accum12h_Sfc_LatLon0.15_PT054H.grib2 2026-04-30 16:05 2.7M
20260430T12Z_MSC_GDPS_Rain-Accum1h_Sfc_LatLon0.15_PT054H.grib2 2026-04-30 16:05 1.7M
20260430T12Z_MSC_GDPS_Rain-Accum24h_Sfc_LatLon0.15_PT054H.grib2 2026-04-30 16:05 3.2M
20260430T12Z_MSC_GDPS_Rain-Accum3h_Sfc_LatLon0.15_PT054H.grib2 2026-04-30 16:05 1.9M
20260430T12Z_MSC_GDPS_Rain-Accum6h_Sfc_LatLon0.15_PT054H.grib2 2026-04-30 16:05 2.3M
20260430T12Z_MSC_GDPS_Rain-Accum_Sfc_LatLon0.15_PT054H.grib2 2026-04-30 16:05 3.7M
20260430T12Z_MSC_GDPS_RelativeHumidity_AGL-2m_LatLon0.15_PT054H.grib2 2026-04-30 16:05 1.0M
20260430T12Z_MSC_GDPS_RelativeHumidity_IsbL-0010_LatLon0.15_PT054H.grib2 2026-04-30 16:05 202K
20260430T12Z_MSC_GDPS_RelativeHumidity_IsbL-0020_LatLon0.15_PT054H.grib2 2026-04-30 16:05 168K
20260430T12Z_MSC_GDPS_RelativeHumidity_IsbL-0030_LatLon0.15_PT054H.grib2 2026-04-30 16:05 269K
20260430T12Z_MSC_GDPS_RelativeHumidity_IsbL-0050_LatLon0.15_PT054H.grib2 2026-04-30 16:05 419K
20260430T12Z_MSC_GDPS_RelativeHumidity_IsbL-0100_LatLon0.15_PT054H.grib2 2026-04-30 16:05 516K
20260430T12Z_MSC_GDPS_RelativeHumidity_IsbL-0150_LatLon0.15_PT054H.grib2 2026-04-30 16:05 666K
20260430T12Z_MSC_GDPS_RelativeHumidity_IsbL-0175_LatLon0.15_PT054H.grib2 2026-04-30 16:05 782K
20260430T12Z_MSC_GDPS_RelativeHumidity_IsbL-0200_LatLon0.15_PT054H.grib2 2026-04-30 16:05 700K
20260430T12Z_MSC_GDPS_RelativeHumidity_IsbL-0225_LatLon0.15_PT054H.grib2 2026-04-30 16:05 793K
20260430T12Z_MSC_GDPS_RelativeHumidity_IsbL-0250_LatLon0.15_PT054H.grib2 2026-04-30 16:05 868K
20260430T12Z_MSC_GDPS_RelativeHumidity_IsbL-0275_LatLon0.15_PT054H.grib2 2026-04-30 16:05 888K
20260430T12Z_MSC_GDPS_RelativeHumidity_IsbL-0300_LatLon0.15_PT054H.grib2 2026-04-30 16:05 928K
20260430T12Z_MSC_GDPS_RelativeHumidity_IsbL-0350_LatLon0.15_PT054H.grib2 2026-04-30 16:05 947K
20260430T12Z_MSC_GDPS_RelativeHumidity_IsbL-0400_LatLon0.15_PT054H.grib2 2026-04-30 16:05 970K
20260430T12Z_MSC_GDPS_RelativeHumidity_IsbL-0450_LatLon0.15_PT054H.grib2 2026-04-30 16:05 1.0M
20260430T12Z_MSC_GDPS_RelativeHumidity_IsbL-0500_LatLon0.15_PT054H.grib2 2026-04-30 16:05 1.0M
20260430T12Z_MSC_GDPS_RelativeHumidity_IsbL-0550_LatLon0.15_PT054H.grib2 2026-04-30 16:05 1.1M
20260430T12Z_MSC_GDPS_RelativeHumidity_IsbL-0600_LatLon0.15_PT054H.grib2 2026-04-30 16:05 1.1M
20260430T12Z_MSC_GDPS_RelativeHumidity_IsbL-0650_LatLon0.15_PT054H.grib2 2026-04-30 16:05 1.1M
20260430T12Z_MSC_GDPS_RelativeHumidity_IsbL-0700_LatLon0.15_PT054H.grib2 2026-04-30 16:05 1.2M
20260430T12Z_MSC_GDPS_RelativeHumidity_IsbL-0750_LatLon0.15_PT054H.grib2 2026-04-30 16:05 1.2M
20260430T12Z_MSC_GDPS_RelativeHumidity_IsbL-0800_LatLon0.15_PT054H.grib2 2026-04-30 16:05 1.3M
20260430T12Z_MSC_GDPS_RelativeHumidity_IsbL-0850_LatLon0.15_PT054H.grib2 2026-04-30 16:05 1.3M
20260430T12Z_MSC_GDPS_RelativeHumidity_IsbL-0875_LatLon0.15_PT054H.grib2 2026-04-30 16:05 1.3M
20260430T12Z_MSC_GDPS_RelativeHumidity_IsbL-0900_LatLon0.15_PT054H.grib2 2026-04-30 16:05 1.2M
20260430T12Z_MSC_GDPS_RelativeHumidity_IsbL-0925_LatLon0.15_PT054H.grib2 2026-04-30 16:05 1.2M
20260430T12Z_MSC_GDPS_RelativeHumidity_IsbL-0950_LatLon0.15_PT054H.grib2 2026-04-30 16:05 1.2M
20260430T12Z_MSC_GDPS_RelativeHumidity_IsbL-0970_LatLon0.15_PT054H.grib2 2026-04-30 16:05 1.2M
20260430T12Z_MSC_GDPS_RelativeHumidity_IsbL-0985_LatLon0.15_PT054H.grib2 2026-04-30 16:05 1.2M
20260430T12Z_MSC_GDPS_RelativeHumidity_IsbL-1000_LatLon0.15_PT054H.grib2 2026-04-30 16:05 1.1M
20260430T12Z_MSC_GDPS_RelativeHumidity_IsbL-1015_LatLon0.15_PT054H.grib2 2026-04-30 16:05 1.0M
20260430T12Z_MSC_GDPS_RelativeVorticity_IsbL-0200_LatLon0.15_PT054H.grib2 2026-04-30 16:05 1.5M
20260430T12Z_MSC_GDPS_RelativeVorticity_IsbL-0250_LatLon0.15_PT054H.grib2 2026-04-30 16:05 1.6M
20260430T12Z_MSC_GDPS_RelativeVorticity_IsbL-0500_LatLon0.15_PT054H.grib2 2026-04-30 16:05 1.4M
20260430T12Z_MSC_GDPS_RelativeVorticity_IsbL-0700_LatLon0.15_PT054H.grib2 2026-04-30 16:05 1.3M
20260430T12Z_MSC_GDPS_RelativeVorticity_IsbL-0850_LatLon0.15_PT054H.grib2 2026-04-30 16:05 1.6M
20260430T12Z_MSC_GDPS_Runoff-Accum_Sfc_LatLon0.15_PT054H.grib2 2026-04-30 16:05 133K
20260430T12Z_MSC_GDPS_SensibleHeatNetFlux_Sfc_LatLon0.15_PT054H.grib2 2026-04-30 16:05 630K
20260430T12Z_MSC_GDPS_ShowalterIndex_IsbL-0500_LatLon0.15_PT054H.grib2 2026-04-30 16:05 6.2M
20260430T12Z_MSC_GDPS_Snow-Accum12h_Sfc_LatLon0.15_PT054H.grib2 2026-04-30 16:05 1.5M
20260430T12Z_MSC_GDPS_Snow-Accum1h_Sfc_LatLon0.15_PT054H.grib2 2026-04-30 16:05 1.1M
20260430T12Z_MSC_GDPS_Snow-Accum24h_Sfc_LatLon0.15_PT054H.grib2 2026-04-30 16:05 1.5M
20260430T12Z_MSC_GDPS_Snow-Accum3h_Sfc_LatLon0.15_PT054H.grib2 2026-04-30 16:05 1.1M
20260430T12Z_MSC_GDPS_Snow-Accum6h_Sfc_LatLon0.15_PT054H.grib2 2026-04-30 16:05 1.4M
20260430T12Z_MSC_GDPS_Snow-Accum_Sfc_LatLon0.15_PT054H.grib2 2026-04-30 16:05 1.8M
20260430T12Z_MSC_GDPS_SnowDensity_Sfc_LatLon0.15_PT054H.grib2 2026-04-30 16:05 262K
20260430T12Z_MSC_GDPS_SnowDepth_Sfc_LatLon0.15_PT054H.grib2 2026-04-30 16:05 1.7M
20260430T12Z_MSC_GDPS_SoilTemp_DBS-0to10cm_LatLon0.15_PT054H.grib2 2026-04-30 16:05 508K
20260430T12Z_MSC_GDPS_SoilTemp_Sfc_LatLon0.15_PT054H.grib2 2026-04-30 16:05 579K
20260430T12Z_MSC_GDPS_SoilVolumetricIceContent_Sfc_LatLon0.15_PT054H.grib2 2026-04-30 16:05 201K
20260430T12Z_MSC_GDPS_SoilVolumetricWaterContent_DBS-0to10cm_LatLon0.15_PT054H.grib2 2026-04-30 16:05 587K
20260430T12Z_MSC_GDPS_SoilVolumetricWaterContent_DBS-0to1cm_LatLon0.15_PT054H.grib2 2026-04-30 16:05 651K
20260430T12Z_MSC_GDPS_SpecificHumidity_AGL-120m_LatLon0.15_PT054H.grib2 2026-04-30 16:05 1.1M
20260430T12Z_MSC_GDPS_SpecificHumidity_AGL-2m_LatLon0.15_PT054H.grib2 2026-04-30 16:05 1.2M
20260430T12Z_MSC_GDPS_SpecificHumidity_AGL-40m_LatLon0.15_PT054H.grib2 2026-04-30 16:05 1.1M
20260430T12Z_MSC_GDPS_SpecificHumidity_AGL-80m_LatLon0.15_PT054H.grib2 2026-04-30 16:05 1.1M
20260430T12Z_MSC_GDPS_SpecificHumidity_IsbL-0001_LatLon0.15_PT054H.grib2 2026-04-30 16:05 1.3M
20260430T12Z_MSC_GDPS_SpecificHumidity_IsbL-0005_LatLon0.15_PT054H.grib2 2026-04-30 16:05 1.2M
20260430T12Z_MSC_GDPS_SpecificHumidity_IsbL-0010_LatLon0.15_PT054H.grib2 2026-04-30 16:05 1.3M
20260430T12Z_MSC_GDPS_SpecificHumidity_IsbL-0020_LatLon0.15_PT054H.grib2 2026-04-30 16:05 1.4M
20260430T12Z_MSC_GDPS_SpecificHumidity_IsbL-0030_LatLon0.15_PT054H.grib2 2026-04-30 16:05 1.3M
20260430T12Z_MSC_GDPS_SpecificHumidity_IsbL-0050_LatLon0.15_PT054H.grib2 2026-04-30 16:05 1.7M
20260430T12Z_MSC_GDPS_SpecificHumidity_IsbL-0100_LatLon0.15_PT054H.grib2 2026-04-30 16:05 1.4M
20260430T12Z_MSC_GDPS_SpecificHumidity_IsbL-0150_LatLon0.15_PT054H.grib2 2026-04-30 16:05 1.3M
20260430T12Z_MSC_GDPS_SpecificHumidity_IsbL-0175_LatLon0.15_PT054H.grib2 2026-04-30 16:05 1.2M
20260430T12Z_MSC_GDPS_SpecificHumidity_IsbL-0200_LatLon0.15_PT054H.grib2 2026-04-30 16:05 1.3M
20260430T12Z_MSC_GDPS_SpecificHumidity_IsbL-0225_LatLon0.15_PT054H.grib2 2026-04-30 16:05 1.3M
20260430T12Z_MSC_GDPS_SpecificHumidity_IsbL-0250_LatLon0.15_PT054H.grib2 2026-04-30 16:05 1.4M
20260430T12Z_MSC_GDPS_SpecificHumidity_IsbL-0275_LatLon0.15_PT054H.grib2 2026-04-30 16:05 1.3M
20260430T12Z_MSC_GDPS_SpecificHumidity_IsbL-0300_LatLon0.15_PT054H.grib2 2026-04-30 16:05 1.2M
20260430T12Z_MSC_GDPS_SpecificHumidity_IsbL-0350_LatLon0.15_PT054H.grib2 2026-04-30 16:05 1.2M
20260430T12Z_MSC_GDPS_SpecificHumidity_IsbL-0400_LatLon0.15_PT054H.grib2 2026-04-30 16:05 1.5M
20260430T12Z_MSC_GDPS_SpecificHumidity_IsbL-0450_LatLon0.15_PT054H.grib2 2026-04-30 16:05 1.6M
20260430T12Z_MSC_GDPS_SpecificHumidity_IsbL-0500_LatLon0.15_PT054H.grib2 2026-04-30 16:05 1.4M
20260430T12Z_MSC_GDPS_SpecificHumidity_IsbL-0550_LatLon0.15_PT054H.grib2 2026-04-30 16:05 1.6M
20260430T12Z_MSC_GDPS_SpecificHumidity_IsbL-0600_LatLon0.15_PT054H.grib2 2026-04-30 16:05 1.7M
20260430T12Z_MSC_GDPS_SpecificHumidity_IsbL-0650_LatLon0.15_PT054H.grib2 2026-04-30 16:05 1.5M
20260430T12Z_MSC_GDPS_SpecificHumidity_IsbL-0700_LatLon0.15_PT054H.grib2 2026-04-30 16:05 1.6M
20260430T12Z_MSC_GDPS_SpecificHumidity_IsbL-0750_LatLon0.15_PT054H.grib2 2026-04-30 16:05 1.7M
20260430T12Z_MSC_GDPS_SpecificHumidity_IsbL-0800_LatLon0.15_PT054H.grib2 2026-04-30 16:05 1.9M
20260430T12Z_MSC_GDPS_SpecificHumidity_IsbL-0850_LatLon0.15_PT054H.grib2 2026-04-30 16:05 1.9M
20260430T12Z_MSC_GDPS_SpecificHumidity_IsbL-0875_LatLon0.15_PT054H.grib2 2026-04-30 16:05 1.9M
20260430T12Z_MSC_GDPS_SpecificHumidity_IsbL-0900_LatLon0.15_PT054H.grib2 2026-04-30 16:05 1.9M
20260430T12Z_MSC_GDPS_SpecificHumidity_IsbL-0925_LatLon0.15_PT054H.grib2 2026-04-30 16:05 1.6M
20260430T12Z_MSC_GDPS_SpecificHumidity_IsbL-0950_LatLon0.15_PT054H.grib2 2026-04-30 16:05 1.6M
20260430T12Z_MSC_GDPS_SpecificHumidity_IsbL-0970_LatLon0.15_PT054H.grib2 2026-04-30 16:05 1.6M
20260430T12Z_MSC_GDPS_SpecificHumidity_IsbL-0985_LatLon0.15_PT054H.grib2 2026-04-30 16:05 1.5M
20260430T12Z_MSC_GDPS_SpecificHumidity_IsbL-1000_LatLon0.15_PT054H.grib2 2026-04-30 16:05 1.5M
20260430T12Z_MSC_GDPS_SpecificHumidity_IsbL-1015_LatLon0.15_PT054H.grib2 2026-04-30 16:05 1.5M
20260430T12Z_MSC_GDPS_SpecificHumidity_Sfc_LatLon0.15_PT054H.grib2 2026-04-30 16:05 668K
20260430T12Z_MSC_GDPS_Thickness_IsbL-0850to0700_LatLon0.15_PT054H.grib2 2026-04-30 16:05 469K
20260430T12Z_MSC_GDPS_Thickness_IsbL-1000to0500_LatLon0.15_PT054H.grib2 2026-04-30 16:05 370K
20260430T12Z_MSC_GDPS_Thickness_IsbL-1000to0850_LatLon0.15_PT054H.grib2 2026-04-30 16:05 491K
20260430T12Z_MSC_GDPS_TotalCloudCover_Sfc_LatLon0.15_PT054H.grib2 2026-04-30 16:05 825K
20260430T12Z_MSC_GDPS_TotalTotalsIndex_Sfc_LatLon0.15_PT054H.grib2 2026-04-30 16:05 6.2M
20260430T12Z_MSC_GDPS_UVIndex-ClearSky-Max24h_Sfc_LatLon0.15_PT054H.grib2 2026-04-30 16:44 2.2M
20260430T12Z_MSC_GDPS_UVIndex-ClearSky_Sfc_LatLon0.15_PT054H.grib2 2026-04-30 16:44 1.0M
20260430T12Z_MSC_GDPS_UVIndex-Max24h_Sfc_LatLon0.15_PT054H.grib2 2026-04-30 16:44 3.2M
20260430T12Z_MSC_GDPS_UVIndex_Sfc_LatLon0.15_PT054H.grib2 2026-04-30 16:44 1.5M
20260430T12Z_MSC_GDPS_UpwardLongwaveRadiationFlux_NTAtm_LatLon0.15_PT054H.grib2 2026-04-30 16:05 838K
20260430T12Z_MSC_GDPS_VerticalVelocity_IsbL-0200_LatLon0.15_PT054H.grib2 2026-04-30 16:05 1.1M
20260430T12Z_MSC_GDPS_VerticalVelocity_IsbL-0250_LatLon0.15_PT054H.grib2 2026-04-30 16:05 1.0M
20260430T12Z_MSC_GDPS_VerticalVelocity_IsbL-0500_LatLon0.15_PT054H.grib2 2026-04-30 16:05 1.3M
20260430T12Z_MSC_GDPS_VerticalVelocity_IsbL-0600_LatLon0.15_PT054H.grib2 2026-04-30 16:05 1.4M
20260430T12Z_MSC_GDPS_VerticalVelocity_IsbL-0700_LatLon0.15_PT054H.grib2 2026-04-30 16:05 1.1M
20260430T12Z_MSC_GDPS_VerticalVelocity_IsbL-0850_LatLon0.15_PT054H.grib2 2026-04-30 16:05 1.3M
20260430T12Z_MSC_GDPS_WindChill_Sfc_LatLon0.15_PT054H.grib2 2026-04-30 16:05 5.3M
20260430T12Z_MSC_GDPS_WindDir_AGL-10m_LatLon0.15_PT054H.grib2 2026-04-30 16:05 1.3M
20260430T12Z_MSC_GDPS_WindDir_AGL-120m_LatLon0.15_PT054H.grib2 2026-04-30 16:05 1.4M
20260430T12Z_MSC_GDPS_WindDir_AGL-40m_LatLon0.15_PT054H.grib2 2026-04-30 16:05 1.4M
20260430T12Z_MSC_GDPS_WindDir_AGL-80m_LatLon0.15_PT054H.grib2 2026-04-30 16:05 1.4M
20260430T12Z_MSC_GDPS_WindDir_IsbL-0001_LatLon0.15_PT054H.grib2 2026-04-30 16:05 682K
20260430T12Z_MSC_GDPS_WindDir_IsbL-0005_LatLon0.15_PT054H.grib2 2026-04-30 16:05 808K
20260430T12Z_MSC_GDPS_WindDir_IsbL-0010_LatLon0.15_PT054H.grib2 2026-04-30 16:05 838K
20260430T12Z_MSC_GDPS_WindDir_IsbL-0020_LatLon0.15_PT054H.grib2 2026-04-30 16:05 949K
20260430T12Z_MSC_GDPS_WindDir_IsbL-0030_LatLon0.15_PT054H.grib2 2026-04-30 16:05 937K
20260430T12Z_MSC_GDPS_WindDir_IsbL-0050_LatLon0.15_PT054H.grib2 2026-04-30 16:05 952K
20260430T12Z_MSC_GDPS_WindDir_IsbL-0100_LatLon0.15_PT054H.grib2 2026-04-30 16:05 1.0M
20260430T12Z_MSC_GDPS_WindDir_IsbL-0150_LatLon0.15_PT054H.grib2 2026-04-30 16:05 1.0M
20260430T12Z_MSC_GDPS_WindDir_IsbL-0175_LatLon0.15_PT054H.grib2 2026-04-30 16:05 1.0M
20260430T12Z_MSC_GDPS_WindDir_IsbL-0200_LatLon0.15_PT054H.grib2 2026-04-30 16:05 1.1M
20260430T12Z_MSC_GDPS_WindDir_IsbL-0225_LatLon0.15_PT054H.grib2 2026-04-30 16:05 1.1M
20260430T12Z_MSC_GDPS_WindDir_IsbL-0250_LatLon0.15_PT054H.grib2 2026-04-30 16:05 1.1M
20260430T12Z_MSC_GDPS_WindDir_IsbL-0275_LatLon0.15_PT054H.grib2 2026-04-30 16:05 1.2M
20260430T12Z_MSC_GDPS_WindDir_IsbL-0300_LatLon0.15_PT054H.grib2 2026-04-30 16:05 1.2M
20260430T12Z_MSC_GDPS_WindDir_IsbL-0350_LatLon0.15_PT054H.grib2 2026-04-30 16:05 1.2M
20260430T12Z_MSC_GDPS_WindDir_IsbL-0400_LatLon0.15_PT054H.grib2 2026-04-30 16:05 1.3M
20260430T12Z_MSC_GDPS_WindDir_IsbL-0450_LatLon0.15_PT054H.grib2 2026-04-30 16:05 1.3M
20260430T12Z_MSC_GDPS_WindDir_IsbL-0500_LatLon0.15_PT054H.grib2 2026-04-30 16:05 1.3M
20260430T12Z_MSC_GDPS_WindDir_IsbL-0550_LatLon0.15_PT054H.grib2 2026-04-30 16:05 1.4M
20260430T12Z_MSC_GDPS_WindDir_IsbL-0600_LatLon0.15_PT054H.grib2 2026-04-30 16:05 1.4M
20260430T12Z_MSC_GDPS_WindDir_IsbL-0650_LatLon0.15_PT054H.grib2 2026-04-30 16:05 1.5M
20260430T12Z_MSC_GDPS_WindDir_IsbL-0700_LatLon0.15_PT054H.grib2 2026-04-30 16:05 1.6M
20260430T12Z_MSC_GDPS_WindDir_IsbL-0750_LatLon0.15_PT054H.grib2 2026-04-30 16:05 1.7M
20260430T12Z_MSC_GDPS_WindDir_IsbL-0800_LatLon0.15_PT054H.grib2 2026-04-30 16:05 1.8M
20260430T12Z_MSC_GDPS_WindDir_IsbL-0850_LatLon0.15_PT054H.grib2 2026-04-30 16:05 1.9M
20260430T12Z_MSC_GDPS_WindDir_IsbL-0875_LatLon0.15_PT054H.grib2 2026-04-30 16:05 2.0M
20260430T12Z_MSC_GDPS_WindDir_IsbL-0900_LatLon0.15_PT054H.grib2 2026-04-30 16:05 2.0M
20260430T12Z_MSC_GDPS_WindDir_IsbL-0925_LatLon0.15_PT054H.grib2 2026-04-30 16:05 2.0M
20260430T12Z_MSC_GDPS_WindDir_IsbL-0950_LatLon0.15_PT054H.grib2 2026-04-30 16:05 2.0M
20260430T12Z_MSC_GDPS_WindDir_IsbL-0970_LatLon0.15_PT054H.grib2 2026-04-30 16:05 2.0M
20260430T12Z_MSC_GDPS_WindDir_IsbL-0985_LatLon0.15_PT054H.grib2 2026-04-30 16:05 2.0M
20260430T12Z_MSC_GDPS_WindDir_IsbL-1000_LatLon0.15_PT054H.grib2 2026-04-30 16:05 2.1M
20260430T12Z_MSC_GDPS_WindDir_IsbL-1015_LatLon0.15_PT054H.grib2 2026-04-30 16:05 2.0M
20260430T12Z_MSC_GDPS_WindGust-Max_AGL-10m_LatLon0.15_PT054H.grib2 2026-04-30 16:05 1.8M
20260430T12Z_MSC_GDPS_WindGust-Min_AGL-10m_LatLon0.15_PT054H.grib2 2026-04-30 16:05 2.1M
20260430T12Z_MSC_GDPS_WindGust_AGL-10m_LatLon0.15_PT054H.grib2 2026-04-30 16:05 1.8M
20260430T12Z_MSC_GDPS_WindSpeed_AGL-10m_LatLon0.15_PT054H.grib2 2026-04-30 16:05 1.1M
20260430T12Z_MSC_GDPS_WindSpeed_AGL-120m_LatLon0.15_PT054H.grib2 2026-04-30 16:05 1.3M
20260430T12Z_MSC_GDPS_WindSpeed_AGL-40m_LatLon0.15_PT054H.grib2 2026-04-30 16:05 1.2M
20260430T12Z_MSC_GDPS_WindSpeed_AGL-80m_LatLon0.15_PT054H.grib2 2026-04-30 16:05 1.3M
20260430T12Z_MSC_GDPS_WindSpeed_IsbL-0001_LatLon0.15_PT054H.grib2 2026-04-30 16:05 640K
20260430T12Z_MSC_GDPS_WindSpeed_IsbL-0005_LatLon0.15_PT054H.grib2 2026-04-30 16:05 690K
20260430T12Z_MSC_GDPS_WindSpeed_IsbL-0010_LatLon0.15_PT054H.grib2 2026-04-30 16:05 627K
20260430T12Z_MSC_GDPS_WindSpeed_IsbL-0020_LatLon0.15_PT054H.grib2 2026-04-30 16:05 665K
20260430T12Z_MSC_GDPS_WindSpeed_IsbL-0030_LatLon0.15_PT054H.grib2 2026-04-30 16:05 864K
20260430T12Z_MSC_GDPS_WindSpeed_IsbL-0050_LatLon0.15_PT054H.grib2 2026-04-30 16:05 906K
20260430T12Z_MSC_GDPS_WindSpeed_IsbL-0100_LatLon0.15_PT054H.grib2 2026-04-30 16:05 1.1M
20260430T12Z_MSC_GDPS_WindSpeed_IsbL-0150_LatLon0.15_PT054H.grib2 2026-04-30 16:05 950K
20260430T12Z_MSC_GDPS_WindSpeed_IsbL-0175_LatLon0.15_PT054H.grib2 2026-04-30 16:05 1.0M
20260430T12Z_MSC_GDPS_WindSpeed_IsbL-0200_LatLon0.15_PT054H.grib2 2026-04-30 16:05 1.1M
20260430T12Z_MSC_GDPS_WindSpeed_IsbL-0225_LatLon0.15_PT054H.grib2 2026-04-30 16:05 1.1M
20260430T12Z_MSC_GDPS_WindSpeed_IsbL-0250_LatLon0.15_PT054H.grib2 2026-04-30 16:05 1.1M
20260430T12Z_MSC_GDPS_WindSpeed_IsbL-0275_LatLon0.15_PT054H.grib2 2026-04-30 16:05 1.1M
20260430T12Z_MSC_GDPS_WindSpeed_IsbL-0300_LatLon0.15_PT054H.grib2 2026-04-30 16:05 1.1M
20260430T12Z_MSC_GDPS_WindSpeed_IsbL-0350_LatLon0.15_PT054H.grib2 2026-04-30 16:05 1.1M
20260430T12Z_MSC_GDPS_WindSpeed_IsbL-0400_LatLon0.15_PT054H.grib2 2026-04-30 16:05 1.1M
20260430T12Z_MSC_GDPS_WindSpeed_IsbL-0450_LatLon0.15_PT054H.grib2 2026-04-30 16:05 1.1M
20260430T12Z_MSC_GDPS_WindSpeed_IsbL-0500_LatLon0.15_PT054H.grib2 2026-04-30 16:05 1.1M
20260430T12Z_MSC_GDPS_WindSpeed_IsbL-0550_LatLon0.15_PT054H.grib2 2026-04-30 16:05 1.1M
20260430T12Z_MSC_GDPS_WindSpeed_IsbL-0600_LatLon0.15_PT054H.grib2 2026-04-30 16:05 1.1M
20260430T12Z_MSC_GDPS_WindSpeed_IsbL-0650_LatLon0.15_PT054H.grib2 2026-04-30 16:05 1.5M
20260430T12Z_MSC_GDPS_WindSpeed_IsbL-0700_LatLon0.15_PT054H.grib2 2026-04-30 16:05 1.2M
20260430T12Z_MSC_GDPS_WindSpeed_IsbL-0750_LatLon0.15_PT054H.grib2 2026-04-30 16:05 1.6M
20260430T12Z_MSC_GDPS_WindSpeed_IsbL-0800_LatLon0.15_PT054H.grib2 2026-04-30 16:05 1.7M
20260430T12Z_MSC_GDPS_WindSpeed_IsbL-0850_LatLon0.15_PT054H.grib2 2026-04-30 16:05 1.4M
20260430T12Z_MSC_GDPS_WindSpeed_IsbL-0875_LatLon0.15_PT054H.grib2 2026-04-30 16:05 1.5M
20260430T12Z_MSC_GDPS_WindSpeed_IsbL-0900_LatLon0.15_PT054H.grib2 2026-04-30 16:05 1.8M
20260430T12Z_MSC_GDPS_WindSpeed_IsbL-0925_LatLon0.15_PT054H.grib2 2026-04-30 16:05 1.8M
20260430T12Z_MSC_GDPS_WindSpeed_IsbL-0950_LatLon0.15_PT054H.grib2 2026-04-30 16:05 1.8M
20260430T12Z_MSC_GDPS_WindSpeed_IsbL-0970_LatLon0.15_PT054H.grib2 2026-04-30 16:05 1.9M
20260430T12Z_MSC_GDPS_WindSpeed_IsbL-0985_LatLon0.15_PT054H.grib2 2026-04-30 16:05 1.9M
20260430T12Z_MSC_GDPS_WindSpeed_IsbL-1000_LatLon0.15_PT054H.grib2 2026-04-30 16:05 1.9M
20260430T12Z_MSC_GDPS_WindSpeed_IsbL-1015_LatLon0.15_PT054H.grib2 2026-04-30 16:05 1.8M
20260430T12Z_MSC_GDPS_WindU_AGL-10m_LatLon0.15_PT054H.grib2 2026-04-30 16:05 1.3M
20260430T12Z_MSC_GDPS_WindU_AGL-120m_LatLon0.15_PT054H.grib2 2026-04-30 16:05 1.0M
20260430T12Z_MSC_GDPS_WindU_AGL-40m_LatLon0.15_PT054H.grib2 2026-04-30 16:05 1.0M
20260430T12Z_MSC_GDPS_WindU_AGL-80m_LatLon0.15_PT054H.grib2 2026-04-30 16:05 1.0M
20260430T12Z_MSC_GDPS_WindU_IsbL-0001_LatLon0.15_PT054H.grib2 2026-04-30 16:05 499K
20260430T12Z_MSC_GDPS_WindU_IsbL-0005_LatLon0.15_PT054H.grib2 2026-04-30 16:05 690K
20260430T12Z_MSC_GDPS_WindU_IsbL-0010_LatLon0.15_PT054H.grib2 2026-04-30 16:05 703K
20260430T12Z_MSC_GDPS_WindU_IsbL-0020_LatLon0.15_PT054H.grib2 2026-04-30 16:05 733K
20260430T12Z_MSC_GDPS_WindU_IsbL-0030_LatLon0.15_PT054H.grib2 2026-04-30 16:05 739K
20260430T12Z_MSC_GDPS_WindU_IsbL-0050_LatLon0.15_PT054H.grib2 2026-04-30 16:05 767K
20260430T12Z_MSC_GDPS_WindU_IsbL-0100_LatLon0.15_PT054H.grib2 2026-04-30 16:05 928K
20260430T12Z_MSC_GDPS_WindU_IsbL-0150_LatLon0.15_PT054H.grib2 2026-04-30 16:05 1.0M
20260430T12Z_MSC_GDPS_WindU_IsbL-0175_LatLon0.15_PT054H.grib2 2026-04-30 16:05 817K
20260430T12Z_MSC_GDPS_WindU_IsbL-0200_LatLon0.15_PT054H.grib2 2026-04-30 16:05 843K
20260430T12Z_MSC_GDPS_WindU_IsbL-0225_LatLon0.15_PT054H.grib2 2026-04-30 16:05 854K
20260430T12Z_MSC_GDPS_WindU_IsbL-0250_LatLon0.15_PT054H.grib2 2026-04-30 16:05 856K
20260430T12Z_MSC_GDPS_WindU_IsbL-0275_LatLon0.15_PT054H.grib2 2026-04-30 16:05 884K
20260430T12Z_MSC_GDPS_WindU_IsbL-0300_LatLon0.15_PT054H.grib2 2026-04-30 16:05 876K
20260430T12Z_MSC_GDPS_WindU_IsbL-0350_LatLon0.15_PT054H.grib2 2026-04-30 16:05 889K
20260430T12Z_MSC_GDPS_WindU_IsbL-0400_LatLon0.15_PT054H.grib2 2026-04-30 16:05 891K
20260430T12Z_MSC_GDPS_WindU_IsbL-0450_LatLon0.15_PT054H.grib2 2026-04-30 16:05 1.1M
20260430T12Z_MSC_GDPS_WindU_IsbL-0500_LatLon0.15_PT054H.grib2 2026-04-30 16:05 1.1M
20260430T12Z_MSC_GDPS_WindU_IsbL-0550_LatLon0.15_PT054H.grib2 2026-04-30 16:05 1.1M
20260430T12Z_MSC_GDPS_WindU_IsbL-0600_LatLon0.15_PT054H.grib2 2026-04-30 16:05 1.2M
20260430T12Z_MSC_GDPS_WindU_IsbL-0650_LatLon0.15_PT054H.grib2 2026-04-30 16:05 1.2M
20260430T12Z_MSC_GDPS_WindU_IsbL-0700_LatLon0.15_PT054H.grib2 2026-04-30 16:05 1.2M
20260430T12Z_MSC_GDPS_WindU_IsbL-0750_LatLon0.15_PT054H.grib2 2026-04-30 16:05 1.3M
20260430T12Z_MSC_GDPS_WindU_IsbL-0800_LatLon0.15_PT054H.grib2 2026-04-30 16:05 1.4M
20260430T12Z_MSC_GDPS_WindU_IsbL-0850_LatLon0.15_PT054H.grib2 2026-04-30 16:05 1.4M
20260430T12Z_MSC_GDPS_WindU_IsbL-0875_LatLon0.15_PT054H.grib2 2026-04-30 16:05 1.5M
20260430T12Z_MSC_GDPS_WindU_IsbL-0900_LatLon0.15_PT054H.grib2 2026-04-30 16:05 1.5M
20260430T12Z_MSC_GDPS_WindU_IsbL-0925_LatLon0.15_PT054H.grib2 2026-04-30 16:05 1.5M
20260430T12Z_MSC_GDPS_WindU_IsbL-0950_LatLon0.15_PT054H.grib2 2026-04-30 16:05 1.4M
20260430T12Z_MSC_GDPS_WindU_IsbL-0970_LatLon0.15_PT054H.grib2 2026-04-30 16:05 1.4M
20260430T12Z_MSC_GDPS_WindU_IsbL-0985_LatLon0.15_PT054H.grib2 2026-04-30 16:05 1.4M
20260430T12Z_MSC_GDPS_WindU_IsbL-1000_LatLon0.15_PT054H.grib2 2026-04-30 16:05 1.4M
20260430T12Z_MSC_GDPS_WindU_IsbL-1015_LatLon0.15_PT054H.grib2 2026-04-30 16:05 1.4M
20260430T12Z_MSC_GDPS_WindV_AGL-10m_LatLon0.15_PT054H.grib2 2026-04-30 16:05 1.3M
20260430T12Z_MSC_GDPS_WindV_AGL-120m_LatLon0.15_PT054H.grib2 2026-04-30 16:05 1.0M
20260430T12Z_MSC_GDPS_WindV_AGL-40m_LatLon0.15_PT054H.grib2 2026-04-30 16:05 1.0M
20260430T12Z_MSC_GDPS_WindV_AGL-80m_LatLon0.15_PT054H.grib2 2026-04-30 16:05 1.0M
20260430T12Z_MSC_GDPS_WindV_IsbL-0001_LatLon0.15_PT054H.grib2 2026-04-30 16:05 711K
20260430T12Z_MSC_GDPS_WindV_IsbL-0005_LatLon0.15_PT054H.grib2 2026-04-30 16:05 763K
20260430T12Z_MSC_GDPS_WindV_IsbL-0010_LatLon0.15_PT054H.grib2 2026-04-30 16:05 794K
20260430T12Z_MSC_GDPS_WindV_IsbL-0020_LatLon0.15_PT054H.grib2 2026-04-30 16:05 851K
20260430T12Z_MSC_GDPS_WindV_IsbL-0030_LatLon0.15_PT054H.grib2 2026-04-30 16:05 852K
20260430T12Z_MSC_GDPS_WindV_IsbL-0050_LatLon0.15_PT054H.grib2 2026-04-30 16:05 903K
20260430T12Z_MSC_GDPS_WindV_IsbL-0100_LatLon0.15_PT054H.grib2 2026-04-30 16:05 1.1M
20260430T12Z_MSC_GDPS_WindV_IsbL-0150_LatLon0.15_PT054H.grib2 2026-04-30 16:05 1.0M
20260430T12Z_MSC_GDPS_WindV_IsbL-0175_LatLon0.15_PT054H.grib2 2026-04-30 16:05 1.0M
20260430T12Z_MSC_GDPS_WindV_IsbL-0200_LatLon0.15_PT054H.grib2 2026-04-30 16:05 842K
20260430T12Z_MSC_GDPS_WindV_IsbL-0225_LatLon0.15_PT054H.grib2 2026-04-30 16:05 849K
20260430T12Z_MSC_GDPS_WindV_IsbL-0250_LatLon0.15_PT054H.grib2 2026-04-30 16:05 849K
20260430T12Z_MSC_GDPS_WindV_IsbL-0275_LatLon0.15_PT054H.grib2 2026-04-30 16:05 934K
20260430T12Z_MSC_GDPS_WindV_IsbL-0300_LatLon0.15_PT054H.grib2 2026-04-30 16:05 924K
20260430T12Z_MSC_GDPS_WindV_IsbL-0350_LatLon0.15_PT054H.grib2 2026-04-30 16:05 878K
20260430T12Z_MSC_GDPS_WindV_IsbL-0400_LatLon0.15_PT054H.grib2 2026-04-30 16:05 881K
20260430T12Z_MSC_GDPS_WindV_IsbL-0450_LatLon0.15_PT054H.grib2 2026-04-30 16:05 1.1M
20260430T12Z_MSC_GDPS_WindV_IsbL-0500_LatLon0.15_PT054H.grib2 2026-04-30 16:05 1.1M
20260430T12Z_MSC_GDPS_WindV_IsbL-0550_LatLon0.15_PT054H.grib2 2026-04-30 16:05 1.1M
20260430T12Z_MSC_GDPS_WindV_IsbL-0600_LatLon0.15_PT054H.grib2 2026-04-30 16:05 1.1M
20260430T12Z_MSC_GDPS_WindV_IsbL-0650_LatLon0.15_PT054H.grib2 2026-04-30 16:05 1.2M
20260430T12Z_MSC_GDPS_WindV_IsbL-0700_LatLon0.15_PT054H.grib2 2026-04-30 16:05 1.2M
20260430T12Z_MSC_GDPS_WindV_IsbL-0750_LatLon0.15_PT054H.grib2 2026-04-30 16:05 1.3M
20260430T12Z_MSC_GDPS_WindV_IsbL-0800_LatLon0.15_PT054H.grib2 2026-04-30 16:05 1.4M
20260430T12Z_MSC_GDPS_WindV_IsbL-0850_LatLon0.15_PT054H.grib2 2026-04-30 16:05 1.4M
20260430T12Z_MSC_GDPS_WindV_IsbL-0875_LatLon0.15_PT054H.grib2 2026-04-30 16:05 1.5M
20260430T12Z_MSC_GDPS_WindV_IsbL-0900_LatLon0.15_PT054H.grib2 2026-04-30 16:05 1.5M
20260430T12Z_MSC_GDPS_WindV_IsbL-0925_LatLon0.15_PT054H.grib2 2026-04-30 16:05 1.5M
20260430T12Z_MSC_GDPS_WindV_IsbL-0950_LatLon0.15_PT054H.grib2 2026-04-30 16:05 1.4M
20260430T12Z_MSC_GDPS_WindV_IsbL-0970_LatLon0.15_PT054H.grib2 2026-04-30 16:05 1.4M
20260430T12Z_MSC_GDPS_WindV_IsbL-0985_LatLon0.15_PT054H.grib2 2026-04-30 16:05 1.4M
20260430T12Z_MSC_GDPS_WindV_IsbL-1000_LatLon0.15_PT054H.grib2 2026-04-30 16:05 1.4M
20260430T12Z_MSC_GDPS_WindV_IsbL-1015_LatLon0.15_PT054H.grib2 2026-04-30 16:05 1.4M